sat.trackr.live / text

‹ back to catalog

IRIDIUM 134

NORAD 43075 · 2017-083F

PAYLOAD ACTIVE UNKNOWN

§ Identity

Operator
Country
US
Launch date
2017-12-23
Launch site
AFWTR
Launch vehicle
Mass (kg)
RCS (m²)

Purposes: comms

External: N2YO · Heavens-Above · Gunter

§ Orbital elements

Epoch: 2026-09-08T15:20:19.181760Z

Period
100.40 min
Inclination
86.3929°
Eccentricity
0.0002268
Mean motion
14.34217880 rev/d
Perigee alt
776.0 km
Apogee alt
779.3 km
Semi-major
7,155.8 km
B*
1.3646e-5
RAAN
287.1844°
Arg perigee
90.7025°
Mean anomaly
269.4431°
Rev number
45,606

§ Raw data

IRIDIUM 1341 43075U 17083F   26251.63911090  .00000058  00000+0  13646-4 0  99992 43075  86.3929 287.1844 0002268  90.7025 269.4431 14.34217880456061

JSON: /api/v1/satellites/43075 · /tle

For live sub-satellite position, see the globe view (requires WebGL).

§ Visibility from observer

Set your observer location to see the next 7 days of passes ≥ 10°. The values pass through the URL so the page stays shareable.

No JS? Fill the form by hand. The geolocation button needs JavaScript.